Wind_Speed
16 14 13 14 16 14 15 14 15 15 12 11 11 9 6 11 16 11 15 10 13 18 16 12 11 11 10 10 10 10 12 12 11 11 11 13 13 13 12 13 14 14 15 16 18 18 17 18 17
25 20 12 13 16 15 13 14 15 14 14 12 10 9 9 14 11 11 16 13 14 15 10 12 10 9 9 9 10 10 11 11 10 10 10 12 12 10 10 11 12 13 14 15 14 15 15 15 15
25 20 14 13 12 15 17 14 13 15 14 12 9 11 11 11 13 14 14 14 16 13 9 8 9 9 9 9 9 9 10 10 9 9 9 10 10 10 10 9 10 11 10 12 11 12 12 12 13
26 24 19 18 14 14 15 15 16 16 15 13 10 10 12 12 10 12 13 11 13 12 10 8 7 10 10 8 9 9 8 9 8 8 9 9 9 10 10 9 8 8 9 8 8 9 9 9 10
26 24 22 20 19 18 17 14 13 14 13 13 11 9 10 12 10 9 9 11 8 7 7 4 8 7 10 10 9 8 10 9 11 10 9 10 9 10 10 8 7 6 6 5 5 5 7 6 7
23 24 23 20 21 22 21 19 17 13 13 12 10 7 10 10 9 7 8 10 10 9 10 8 12 12 9 9 8 12 14 16 12 11 11 11 10 9 8 6 6 4 6 5 5 4 4 4 4
21 24 23 20 21 22 21 21 21 15 13 12 9 6 8 10 7 7 8 8 9 12 12 6 7 7 8 6 3 9 9 14 21 15 13 11 10 10 7 5 3 3 3 3 3 3 2 2 3
19 24 22 19 20 21 20 20 22 21 15 14 13 9 5 8 6 6 7 10 15 11 12 11 7 4 6 4 8 1 1 6 21 17 13 10 9 8 6 4 2 0 3 3 3 2 2 3 4
19 20 21 19 19 20 19 19 20 22 19 18 16 14 12 10 6 4 6 10 14 16 15 11 10 8 9 12 5 6 4 3 14 19 13 9 7 4 1 1 2 2 4 4 7 4 2 3 4
18 20 22 20 20 20 17 18 18 20 20 21 18 14 13 12 10 7 5 7 10 12 15 13 13 9 7 8 10 5 2 4 10 16 10 7 7 5 3 4 4 6 10 9 10 12 11 8 6
17 21 27 26 24 22 18 16 16 17 18 18 18 17 14 12 11 10 7 6 7 4 2 6 9 8 8 5 5 1 7 4 4 11 9 8 9 8 8 11 15 14 14 14 14 14 12 12 16
24 23 30 34 31 26 22 18 17 17 19 18 18 19 17 16 15 14 14 11 7 5 6 3 3 3 3 3 7 4 3 1 4 4 10 9 9 8 8 7 8 10 11 15 15 14 17 17 13
31 30 35 36 33 29 28 23 20 19 21 20 20 20 20 21 21 21 18 14 11 9 6 4 2 3 7 8 4 3 2 4 6 1 3 1 2 3 5 5 6 6 5 2 2 1 4 9 7
27 31 33 34 34 30 31 27 22 21 22 22 20 19 19 21 24 23 22 21 18 16 14 12 9 10 6 10 9 9 7 7 8 4 2 4 5 5 7 8 6 6 6 5 3 1 5 11 9
28 28 30 29 28 29 30 30 26 24 23 22 20 20 20 21 22 23 23 23 22 21 19 17 15 17 14 13 11 10 7 5 4 4 5 5 7 5 5 5 5 6 7 12 8 3 4 2 4
29 28 26 26 24 25 26 28 27 23 23 23 19 18 20 21 21 20 20 22 23 23 23 21 21 21 18 17 15 12 10 9 10 9 6 6 8 9 8 7 10 12 7 5 3 5 12 8 9
30 29 25 24 23 22 22 24 24 24 18 18 19 15 16 19 20 19 18 18 19 20 20 20 20 20 18 16 14 12 9 8 9 8 10 7 9 11 8 9 11 10 14 11 9 12 13 12 10
30 27 23 20 19 19 21 21 21 20 23 18 17 16 14 14 16 17 17 17 17 17 17 17 17 16 14 12 9 7 5 4 5 7 8 7 8 7 6 6 7 9 10 9 11 14 14 15 16
29 25 23 20 19 18 19 20 19 19 19 17 16 14 14 14 13 13 13 13 14 14 15 15 15 13 10 8 6 5 5 6 8 7 7 10 8 7 8 9 10 11 13 12 12 13 15 17 19
28 20 20 18 19 15 15 16 18 18 17 12 15 14 13 13 12 12 14 14 13 13 13 13 13 12 12 10 8 8 8 11 14 16 16 15 12 12 14 15 15 15 14 15 16 18 17 17 17
25 20 20 17 11 18 14 12 15 16 16 14 11 10 10 9 8 9 13 15 14 10 10 10 11 12 10 8 7 6 7 11 15 17 20 19 18 18 15 17 18 18 19 20 20 21 22 22 20
22 19 21 13 15 16 15 11 15 14 13 13 12 10 8 8 8 9 10 12 11 10 12 19 14 14 13 12 18 19 3 8 16 26 23 18 14 17 19 18 19 21 19 22 23 23 25 27 26
20 17 10 14 18 14 18 16 16 15 10 5 10 11 13 8 8 11 12 11 19 16 18 21 13 12 10 14 16 13 9 7 13 25 26 14 13 14 20 19 21 22 26 30 30 34 35 33 29
23 19 18 19 22 16 21 20 18 14 10 6 3 5 8 10 11 12 11 13 18 21 15 14 8 10 8 12 15 16 15 13 15 20 28 17 10 16 23 23 24 26 33 29 30 29 29 31 36
25 24 21 21 24 20 25 25 20 14 14 11 8 7 3 5 7 15 15 15 17 19 18 13 13 13 12 13 15 17 18 18 19 19 22 23 20 20 24 27 27 31 37 27 26 30 35 35 36
30 26 21 19 18 21 24 21 20 14 11 9 12 6 2 3 11 16 16 15 16 18 16 18 18 16 15 15 15 17 19 22 23 21 18 19 20 23 22 23 22 26 30 30 38 43 41 40 39
32 30 22 20 20 23 21 23 21 16 13 9 7 4 6 3 4 11 13 9 13 15 15 17 17 16 14 15 18 20 22 23 23 23 23 23 24 24 23 26 26 29 31 34 38 42 45 44 44
35 30 28 25 22 19 20 22 17 16 14 14 12 8 11 7 3 4 9 12 11 12 13 16 18 18 18 20 20 22 24 23 23 23 24 24 27 28 28 27 28 29 32 34 37 41 43 45 45
37 36 33 30 27 23 19 18 16 15 12 13 14 17 14 10 6 3 7 11 9 10 12 16 21 22 22 23 23 23 25 27 28 28 27 27 29 31 32 32 32 34 35 37 41 44 45 47 51
38 38 33 33 31 27 23 18 19 20 17 12 14 14 11 14 11 5 9 11 10 11 13 16 21 23 25 26 24 27 28 29 31 34 34 32 32 33 34 35 36 37 39 40 40 43 47 50 51
Wind_Direction
64 62 70 71 76 92 109 116 121 122 124 123 116 127 107 97 103 100 132 138 133 121 124 108 100 100 106 126 134 124 118 115 114 114 116 110 107 108 106 102 96 91 85 81 84 81 79 81 74
72 70 70 70 77 93 105 113 117 114 114 114 113 118 117 111 114 106 127 130 134 125 126 137 136 129 125 140 147 139 129 127 124 112 110 110 105 103 105 104 99 93 88 84 82 83 78 78 78
72 75 94 84 82 87 91 101 113 117 114 112 109 113 117 109 110 117 129 131 128 122 130 134 150 151 148 150 156 151 141 134 130 121 116 114 114 111 108 108 104 101 92 87 85 82 77 71 69
76 76 92 91 97 89 86 88 97 96 97 96 112 124 122 115 104 112 130 147 142 138 190 163 165 172 163 166 162 161 157 149 138 130 119 116 121 117 110 115 119 111 102 92 83 79 70 66 67
81 78 78 85 96 96 92 90 90 93 95 101 103 121 123 120 118 118 127 144 145 179 188 191 203 190 185 182 175 175 189 172 153 148 144 134 126 114 97 89 98 104 106 99 83 77 80 71 64
82 85 79 77 82 85 94 95 90 91 95 89 85 114 126 124 126 137 153 154 167 183 167 222 194 205 175 178 194 204 197 193 178 169 166 153 140 126 113 106 102 99 92 84 78 67 66 63 50
86 84 79 78 75 76 75 86 85 79 83 87 92 102 123 123 139 152 176 183 175 153 198 169 172 172 185 160 302 252 264 215 189 186 176 168 163 153 161 179 152 115 82 69 72 67 40 21 13
95 96 92 89 82 71 69 72 76 71 68 77 81 82 111 115 124 148 175 173 162 174 162 181 189 185 193 323 260 351 229 205 193 191 184 182 181 172 171 169 148 11 353 348 317 297 313 313 326
94 92 97 90 85 77 70 72 72 74 65 62 70 78 82 85 93 131 160 168 178 196 171 176 189 230 268 286 212 168 128 333 224 198 186 188 200 188 185 237 284 298 320 279 276 274 273 267 318
97 95 87 85 76 76 70 71 68 68 66 60 61 71 80 81 76 78 143 177 189 207 181 195 208 238 243 272 180 153 102 43 194 196 205 216 229 233 246 259 268 275 283 258 257 259 259 248 260
103 102 96 88 79 75 74 71 71 72 71 68 60 57 62 70 76 75 89 164 188 206 259 203 223 238 247 230 183 339 46 22 189 203 215 232 250 265 273 282 284 283 273 259 247 264 278 278 263
104 108 103 94 82 79 75 73 67 70 73 74 73 61 59 63 67 76 87 95 111 155 184 193 225 231 265 296 247 193 95 88 223 87 238 245 268 288 291 301 302 287 276 271 269 272 279 284 281
109 105 99 95 84 79 77 74 73 70 74 74 76 69 60 65 71 77 80 84 85 86 91 106 113 90 57 63 95 190 63 84 83 63 66 203 322 337 15 12 337 7 348 300 258 311 305 294 304
106 105 102 95 86 77 77 71 74 72 69 72 74 72 67 66 72 75 78 82 86 85 85 80 81 82 87 77 76 105 111 90 93 96 354 4 38 5 34 42 34 34 46 32 346 354 319 330 300
113 105 94 88 87 82 80 70 66 71 68 70 70 72 77 75 75 79 82 87 91 93 89 88 89 87 83 87 79 73 65 71 54 31 357 10 46 50 44 36 17 359 33 27 9 187 318 342 327
126 118 103 95 89 84 88 72 59 65 71 72 68 71 79 86 83 82 88 92 91 89 87 85 83 82 82 80 75 73 68 64 50 32 10 32 23 5 344 355 347 335 355 15 12 325 347 358 355
133 127 114 106 101 95 86 80 68 58 67 71 75 74 81 88 94 94 95 95 98 99 97 97 98 98 100 100 96 93 98 90 72 43 44 44 16 8 0 1 357 341 332 340 333 326 330 324 328
137 136 127 113 110 107 98 90 84 67 63 63 79 85 86 89 98 102 102 100 99 98 99 98 93 89 87 86 74 60 43 25 14 28 22 359 357 13 4 348 342 337 337 333 311 309 309 311 313
142 138 127 124 122 120 106 101 98 92 76 49 60 75 89 95 102 106 106 102 97 95 92 90 88 85 87 80 61 36 16 352 349 4 341 326 329 333 327 331 333 328 325 319 314 307 304 310 311
153 143 135 136 129 134 118 111 110 101 94 67 48 65 76 89 96 99 97 93 87 86 88 90 89 84 71 57 28 357 341 346 347 340 325 312 311 313 323 321 321 320 316 314 312 309 307 307 308
160 155 152 146 135 147 138 123 117 104 92 76 50 51 59 74 84 88 92 87 75 74 82 87 96 94 87 68 34 328 43 40 12 348 320 292 297 304 311 309 307 308 309 305 302 303 303 302 298
160 171 162 149 154 154 152 148 123 114 94 80 50 52 55 50 95 96 96 96 76 79 87 77 96 98 95 63 44 44 115 348 335 334 310 297 272 300 303 299 296 293 291 294 299 297 296 299 303
176 184 194 213 180 170 165 163 154 131 111 62 73 60 62 67 79 80 87 76 68 87 84 95 88 46 37 22 46 45 40 10 4 352 358 321 260 274 289 297 295 298 304 299 299 299 293 285 296
184 200 209 203 192 183 173 171 171 153 151 163 136 65 70 77 81 81 78 68 70 87 86 65 60 19 41 26 22 22 20 7 355 6 4 347 306 303 285 286 289 302 306 307 293 310 312 296 291
187 201 210 206 199 187 180 180 181 182 172 178 202 194 144 70 64 65 57 76 79 69 65 64 45 38 34 15 16 2 2 3 1 354 353 351 337 322 309 291 293 306 309 291 295 310 309 308 302
195 208 205 204 187 189 189 181 183 185 196 193 196 194 263 6 51 45 51 79 51 54 50 40 32 19 13 5 4 358 355 350 348 350 347 343 338 329 323 318 312 314 318 303 300 305 306 306 301
206 216 215 212 199 194 185 172 180 182 188 220 184 180 272 260 62 51 45 35 20 25 33 24 16 13 4 359 1 357 352 346 343 340 339 335 330 326 319 311 308 307 305 304 302 303 303 300 301
212 219 225 227 215 214 188 182 185 190 200 209 199 220 247 254 304 64 30 13 1 5 14 9 10 13 4 357 355 353 356 349 344 340 336 333 327 326 323 316 312 306 302 300 297 297 299 299 300
217 215 220 225 231 231 232 220 209 210 212 230 226 223 246 251 290 18 359 4 3 348 341 352 353 0 359 349 342 339 346 352 348 343 338 335 331 327 322 317 312 309 307 305 304 304 304 303 304
224 233 237 239 238 239 237 237 237 231 235 240 242 251 270 282 283 333 337 343 352 344 331 338 343 347 349 350 342 340 336 337 344 343 338 335 330 324 319 315 314 311 308 307 305 304 302 300 297
Height
5903 5902 5902 5902 5905 5902 5901 5903 5902 5902 5902 5902 5902 5905 5906 5906 5906 5909 5909 5910 5911 5910 5911 5912 5914 5916 5919 5920 5921 5922 5922 5923 5926 5926 5927 5927 5927 5928 5930 5931 5932 5932 5932 5933 5932 5931 5931 5929 5928
5905 5905 5905 5904 5905 5904 5903 5903 5903 5902 5903 5903 5904 5906 5907 5908 5908 5908 5910 5911 5912 5914 5914 5914 5916 5918 5919 5921 5922 5924 5925 5925 5926 5927 5928 5928 5929 5930 5931 5932 5933 5933 5933 5933 5934 5933 5933 5932 5930
5908 5908 5909 5907 5906 5906 5905 5905 5904 5904 5904 5905 5906 5907 5908 5908 5909 5910 5911 5912 5913 5915 5916 5917 5918 5918 5919 5921 5922 5924 5926 5926 5928 5927 5928 5929 5930 5931 5932 5933 5934 5933 5934 5934 5935 5935 5935 5934 5933
5911 5912 5912 5910 5909 5907 5905 5906 5906 5905 5904 5905 5907 5909 5909 5909 5910 5911 5912 5913 5915 5915 5917 5917 5918 5919 5919 5921 5923 5924 5926 5927 5929 5929 5930 5930 5930 5931 5932 5933 5933 5934 5935 5935 5937 5937 5936 5936 5935
5913 5913 5913 5912 5911 5909 5907 5907 5907 5907 5907 5907 5908 5909 5910 5910 5911 5912 5913 5913 5914 5915 5916 5917 5918 5919 5920 5923 5924 5925 5926 5927 5927 5929 5930 5930 5931 5933 5933 5934 5934 5935 5935 5935 5937 5937 5937 5937 5937
5916 5915 5915 5914 5913 5911 5910 5909 5909 5910 5909 5909 5909 5910 5910 5910 5911 5912 5914 5914 5915 5915 5916 5918 5919 5918 5919 5923 5924 5924 5924 5925 5927 5928 5929 5930 5931 5931 5932 5933 5935 5936 5936 5937 5938 5938 5938 5938 5937
5918 5917 5916 5916 5915 5914 5913 5912 5910 5911 5910 5910 5910 5910 5911 5910 5911 5911 5913 5914 5914 5915 5916 5918 5917 5918 5920 5922 5923 5922 5923 5923 5925 5927 5928 5929 5930 5931 5932 5933 5935 5936 5937 5937 5937 5938 5937 5937 5936
5921 5919 5918 5919 5918 5916 5915 5915 5913 5913 5913 5912 5911 5910 5911 5910 5911 5912 5913 5914 5915 5915 5917 5917 5919 5919 5920 5921 5922 5922 5921 5922 5924 5926 5928 5929 5930 5931 5933 5933 5935 5936 5936 5937 5936 5935 5935 5936 5935
5924 5924 5921 5921 5920 5920 5919 5918 5917 5915 5916 5914 5912 5912 5913 5912 5912 5913 5914 5914 5916 5916 5917 5918 5919 5921 5922 5922 5922 5922 5923 5923 5924 5927 5928 5930 5932 5932 5934 5934 5935 5936 5936 5935 5933 5932 5932 5932 5932
5926 5926 5924 5924 5923 5922 5922 5921 5919 5917 5916 5915 5916 5915 5914 5913 5913 5913 5914 5916 5916 5918 5914 5919 5921 5922 5924 5923 5924 5922 5923 5923 5925 5928 5929 5931 5932 5933 5933 5935 5935 5935 5934 5933 5932 5931 5931 5930 5930
5929 5928 5925 5926 5926 5926 5925 5923 5923 5921 5919 5918 5918 5917 5916 5915 5914 5914 5915 5916 5918 5917 5918 5920 5922 5924 5925 5924 5924 5925 5923 5925 5927 5929 5930 5930 5931 5932 5932 5933 5932 5931 5931 5930 5930 5928 5929 5929 5927
5932 5930 5926 5927 5928 5928 5926 5926 5925 5924 5923 5922 5921 5920 5919 5918 5917 5916 5917 5919 5919 5921 5922 5923 5924 5926 5925 5923 5923 5924 5925 5927 5927 5927 5928 5929 5930 5930 5930 5930 5929 5929 5928 5926 5927 5926 5924 5924 5922
5934 5931 5930 5928 5930 5930 5928 5928 5928 5927 5925 5925 5924 5923 5923 5922 5920 5920 5920 5921 5922 5923 5924 5924 5925 5925 5925 5924 5924 5925 5927 5928 5927 5928 5928 5929 5929 5930 5931 5929 5929 5927 5925 5924 5924 5923 5923 5920 5919
5936 5934 5933 5931 5933 5933 5931 5932 5932 5931 5929 5928 5927 5926 5925 5925 5924 5924 5924 5924 5925 5926 5927 5927 5927 5927 5927 5926 5927 5928 5929 5928 5928 5929 5929 5931 5931 5932 5930 5928 5928 5928 5926 5924 5923 5922 5920 5919 5916
5937 5937 5937 5936 5936 5935 5934 5936 5935 5934 5932 5932 5931 5929 5929 5928 5927 5927 5927 5927 5927 5928 5928 5928 5928 5928 5929 5929 5930 5931 5932 5931 5931 5931 5931 5932 5931 5931 5930 5930 5928 5927 5927 5924 5921 5921 5919 5917 5916
5937 5937 5937 5937 5939 5938 5938 5938 5938 5937 5936 5935 5934 5934 5933 5931 5931 5931 5930 5929 5929 5930 5930 5931 5931 5931 5931 5931 5931 5931 5931 5932 5932 5933 5933 5933 5933 5932 5931 5931 5930 5929 5928 5927 5925 5924 5921 5918 5917
5938 5939 5939 5940 5940 5940 5940 5940 5941 5940 5939 5938 5937 5937 5937 5935 5934 5934 5933 5933 5932 5932 5932 5932 5931 5931 5931 5930 5930 5929 5929 5929 5930 5931 5932 5933 5933 5933 5930 5931 5929 5928 5927 5928 5926 5925 5923 5921 5918
5940 5941 5941 5941 5943 5943 5943 5943 5942 5943 5943 5942 5941 5940 5940 5940 5939 5937 5937 5936 5936 5935 5935 5935 5935 5936 5936 5935 5935 5934 5933 5932 5932 5932 5932 5931 5932 5931 5930 5930 5929 5927 5925 5926 5925 5924 5921 5919 5917
5940 5941 5941 5943 5945 5945 5945 5944 5943 5944 5946 5946 5944 5943 5942 5942 5941 5941 5940 5940 5940 5940 5939 5940 5939 5938 5936 5936 5936 5935 5935 5935 5933 5933 5932 5931 5931 5930 5930 5928 5927 5926 5924 5922 5922 5921 5920 5918 5917
5940 5940 5941 5943 5944 5947 5948 5947 5945 5944 5946 5948 5947 5947 5945 5944 5944 5944 5944 5944 5943 5942 5941 5940 5939 5938 5939 5938 5938 5936 5934 5934 5934 5932 5931 5930 5928 5927 5927 5926 5926 5924 5922 5921 5920 5919 5917 5916 5914
5938 5940 5941 5943 5945 5947 5949 5950 5948 5947 5947 5948 5948 5948 5947 5947 5946 5946 5946 5946 5945 5943 5942 5941 5941 5940 5940 5939 5938 5934 5933 5933 5932 5930 5927 5924 5925 5924 5923 5922 5922 5921 5920 5918 5916 5915 5914 5912 5911
5936 5938 5940 5942 5945 5947 5949 5952 5951 5950 5948 5949 5950 5949 5948 5949 5949 5948 5949 5948 5946 5944 5943 5944 5943 5941 5940 5940 5937 5933 5932 5932 5929 5925 5920 5917 5918 5919 5918 5918 5917 5915 5913 5912 5911 5909 5907 5904 5901
5934 5935 5938 5941 5944 5947 5948 5951 5951 5951 5951 5950 5950 5950 5949 5949 5949 5949 5949 5949 5948 5946 5945 5945 5945 5944 5941 5940 5937 5934 5933 5932 5929 5924 5917 5913 5912 5913 5914 5913 5912 5912 5910 5906 5905 5904 5901 5899 5897
5929 5933 5937 5940 5943 5945 5946 5949 5951 5950 5951 5951 5951 5951 5950 5950 5949 5949 5949 5949 5949 5949 5948 5946 5945 5943 5941 5939 5937 5934 5933 5930 5926 5921 5916 5913 5914 5913 5911 5909 5909 5908 5906 5903 5901 5897 5893 5890 5890
5925 5930 5934 5938 5941 5944 5945 5947 5949 5949 5950 5950 5950 5950 5950 5951 5950 5949 5948 5948 5949 5948 5948 5946 5945 5943 5942 5939 5936 5933 5931 5929 5925 5921 5917 5915 5912 5909 5907 5905 5903 5901 5899 5895 5893 5890 5887 5882 5880
5923 5928 5931 5935 5939 5942 5943 5946 5948 5949 5949 5949 5950 5950 5950 5950 5948 5946 5946 5946 5947 5946 5945 5944 5943 5942 5940 5939 5936 5933 5929 5927 5924 5920 5917 5914 5911 5907 5905 5900 5897 5895 5891 5889 5886 5883 5879 5874 5871
5920 5921 5929 5932 5936 5938 5941 5944 5945 5947 5948 5949 5949 5949 5949 5949 5949 5947 5946 5946 5946 5944 5944 5943 5942 5940 5939 5936 5933 5931 5928 5925 5922 5919 5915 5910 5909 5906 5903 5899 5894 5890 5887 5883 5879 5875 5872 5867 5861
5915 5922 5924 5926 5931 5936 5938 5940 5943 5945 5946 5948 5949 5948 5948 5948 5948 5947 5946 5944 5943 5943 5942 5942 5939 5938 5937 5934 5931 5929 5926 5923 5919 5916 5912 5908 5905 5901 5898 5894 5889 5885 5882 5876 5872 5868 5863 5857 5851
5909 5912 5917 5922 5926 5930 5935 5939 5940 5941 5944 5946 5946 5946 5946 5947 5947 5945 5945 5944 5942 5940 5940 5938 5937 5935 5934 5932 5928 5925 5922 5918 5915 5911 5907 5903 5899 5895 5890 5886 5882 5877 5872 5867 5862 5855 5851 5846 5840
5905 5910 5914 5917 5922 5925 5929 5935 5936 5937 5940 5943 5943 5943 5944 5944 5944 5943 5943 5941 5940 5939 5937 5935 5933 5932 5931 5928 5925 5921 5917 5914 5910 5905 5900 5897 5892 5887 5882 5878 5872 5868 5862 5857 5852 5848 5842 5836 5829